Location: Arcueil
(48.7999°N, 2.3326°E)
Time: 14:08:56
(UTC+00:00)

In-Cosmos 22 Rocket - Pass Details

Date: 03 February 2023
Orbit: 789 x 888 km, 81.2° (Epoch: 21 March)

Event Time Altitude Azimuth Distance (km) Brightness Sun altitude
Rises 18:30:05 0° 190° (S) 3,466 7.6 -16.5°
Reaches altitude 10° 18:32:30 10° 190° (S) 2,539 6.9 -16.8°
Maximum altitude 18:38:19 89° 279° (W) 896 4.3 -17.8°
Drops below altitude 10° 18:44:12 10° 12° (NNE) 2,562 6.5 -18.8°
Sets 18:46:39 0° 12° (NNE) 3,500 7.3 -19.2°
